Fosston, MN

8:53 PM CST on February 24, 2017 (GMT -0600)
Fosston Municipal

Weather History for KFSE - October, 2011

Change the Weather History Date:

Saturday, October 1, 2011

  Actual Average Record
Temperature  
Mean Temperature 54 °F -  
Max Temperature 68 °F 65 °F 88 °F (1989)
Min Temperature 39 °F 40 °F 23 °F (2003)
Degree Days  
Heating Degree Days 12    
Growing Degree Days 4 (Base 50)    
Moisture  
Dew Point 35 °F    
Average Humidity 55    
Maximum Humidity 81    
Minimum Humidity 30    
Precipitation  
Precipitation 0.00 in - - ()
Sea Level Pressure  
Sea Level Pressure 30.12 in    
Wind  
Wind Speed 12 mph (SSE)    
Max Wind Speed 23 mph    
Max Gust Speed 30 mph    
Visibility 10 miles    
Events      
Averages and records for this station are not official NWS values.
T = Trace of Precipitation, MM = Missing Value Source: NWS Daily Summary

Daily Weather History Graph

Daily Weather History Graph

Search for Another Location

Airport or City:

Trip Planner

Search our weather history database for the weather conditions in past years. The results will help you decide how hot, cold, wet, or windy it might be!

Date:

Astronomy

Oct. 01, 2011 Rise Set
Actual Time 7:21 AM CDT 7:02 PM CDT
Civil Twilight 6:51 AM CDT 7:33 PM CDT
Nautical Twilight 6:15 AM CDT 8:09 PM CDT
Astronomical Twilight 5:38 AM CDT 8:45 PM CDT
Moon 12:54 PM CDT (10/1) 9:36 PM CDT (10/1)
Length of Visible Light 12h 42m
Length of Day
11h 41m
Waxing Crescent, 24% of the Moon is Illuminated
Oct 1
Waxing Crescent
Oct 3
First Quarter
Oct 11
Full
Oct 19
Last Quarter
Oct 26
New

Hourly Weather History & Observations

Time (CDT) Temp. Windchill Dew Point Humidity Pressure Visibility Wind Dir Wind Speed Gust Speed Precip Events Conditions
12:13 AM 42.8 °F 38.6 °F 33.8 °F 70% 30.20 in 10.0 mi SE 6.9 mph - N/A   Clear
12:33 AM 42.8 °F 38.6 °F 33.8 °F 70% 30.20 in 10.0 mi SE 6.9 mph - N/A   Clear
12:53 AM 42.8 °F 40.1 °F 33.8 °F 70% 30.20 in 10.0 mi SE 4.6 mph - N/A   Clear
1:13 AM 41.0 °F 38.0 °F 32.0 °F 70% 30.20 in 10.0 mi SE 4.6 mph - N/A   Clear
1:33 AM 39.2 °F 35.0 °F 32.0 °F 75% 30.20 in 10.0 mi SE 5.8 mph - N/A   Clear
1:53 AM 39.2 °F 35.0 °F 32.0 °F 75% 30.19 in 10.0 mi SE 5.8 mph - N/A   Clear
2:13 AM 39.2 °F 33.0 °F 32.0 °F 75% 30.20 in 10.0 mi SE 9.2 mph - N/A   Clear
2:32 AM 39.2 °F 33.6 °F 32.0 °F 75% 30.20 in 10.0 mi SE 8.1 mph - N/A   Clear
3:13 AM 41.0 °F 35.8 °F 33.8 °F 76% 30.18 in 10.0 mi SSE 8.1 mph - N/A   Clear
3:33 AM 41.0 °F 35.8 °F 33.8 °F 76% 30.18 in 10.0 mi SSE 8.1 mph - N/A   Clear
3:53 AM 41.0 °F - 33.8 °F 76% 30.18 in 10.0 mi Calm Calm - N/A   Clear
4:13 AM 39.2 °F 34.2 °F 32.0 °F 75% 30.18 in 10.0 mi SSE 6.9 mph - N/A   Clear
4:33 AM 39.2 °F 33.0 °F 32.0 °F 75% 30.19 in 10.0 mi SSE 9.2 mph - N/A   Clear
5:13 AM 39.2 °F 33.0 °F 33.8 °F 81% 30.18 in 10.0 mi SSE 9.2 mph - N/A   Clear
5:33 AM 39.2 °F 33.6 °F 33.8 °F 81% 30.17 in 10.0 mi SSE 8.1 mph - N/A   Clear
5:53 AM 39.2 °F 31.6 °F 33.8 °F 81% 30.17 in 10.0 mi SSE 12.7 mph - N/A   Clear
6:13 AM 39.2 °F 31.6 °F 33.8 °F 81% 30.17 in 10.0 mi SSE 12.7 mph 16.1 mph N/A   Clear
6:33 AM 39.2 °F 33.0 °F 33.8 °F 81% 30.17 in 10.0 mi SSE 9.2 mph - N/A   Clear
6:53 AM 39.2 °F 32.5 °F 32.0 °F 75% 30.17 in 10.0 mi SSE 10.4 mph - N/A   Clear
7:13 AM 39.2 °F 35.9 °F 32.0 °F 75% 30.18 in 10.0 mi SSE 4.6 mph - N/A   Clear
7:33 AM 39.2 °F 30.5 °F 30.2 °F 70% 30.18 in 10.0 mi SSE 16.1 mph 21.9 mph N/A   Clear
7:53 AM 39.2 °F 31.2 °F 30.2 °F 70% 30.18 in 10.0 mi South 13.8 mph 18.4 mph N/A   Clear
8:13 AM 42.8 °F 35.1 °F 32.0 °F 66% 30.18 in 10.0 mi SSE 16.1 mph 19.6 mph N/A   Clear
8:33 AM 44.6 °F 37.4 °F 32.0 °F 61% 30.18 in 10.0 mi South 16.1 mph - N/A   Clear
8:53 AM 44.6 °F 38.1 °F 33.8 °F 66% 30.17 in 10.0 mi SSE 13.8 mph 25.3 mph N/A   Clear
9:13 AM 46.4 °F 39.5 °F 33.8 °F 62% 30.17 in 10.0 mi SSE 17.3 mph 25.3 mph N/A   Clear
9:33 AM 48.2 °F - 33.8 °F 58% 30.16 in 10.0 mi South 20.7 mph 26.5 mph N/A   Clear
9:53 AM 48.2 °F - 33.8 °F 58% 30.16 in 10.0 mi South 20.7 mph 27.6 mph N/A   Clear
10:12 AM 51.8 °F - 33.8 °F 50% 30.16 in 10.0 mi South 19.6 mph - N/A   Clear
10:33 AM 51.8 °F - 35.6 °F 54% 30.16 in 10.0 mi SSE 20.7 mph - N/A   Clear
10:53 AM 53.6 °F - 35.6 °F 51% 30.15 in 10.0 mi South 23.0 mph 26.5 mph N/A   Clear
11:13 AM 55.4 °F - 35.6 °F 47% 30.15 in 10.0 mi South 20.7 mph 24.2 mph N/A   Clear
11:34 AM 57.2 °F - 35.6 °F 44% 30.14 in 10.0 mi SSE 19.6 mph 27.6 mph N/A   Clear
12:13 PM 59.0 °F - 35.6 °F 42% 30.13 in 10.0 mi South 20.7 mph 26.5 mph N/A   Clear
12:33 PM 60.8 °F - 37.4 °F 42% 30.12 in 10.0 mi SSE 18.4 mph 26.5 mph N/A   Clear
12:53 PM 62.6 °F - 37.4 °F 39% 30.12 in 10.0 mi SSE 18.4 mph 24.2 mph N/A   Clear
1:13 PM 62.6 °F - 37.4 °F 39% 30.11 in 10.0 mi South 19.6 mph 26.5 mph N/A   Clear
1:33 PM 64.4 °F - 37.4 °F 37% 30.10 in 10.0 mi SSE 17.3 mph 23.0 mph N/A   Clear
1:53 PM 64.4 °F - 35.6 °F 34% 30.09 in 10.0 mi South 20.7 mph 27.6 mph N/A   Clear
2:13 PM 66.2 °F - 37.4 °F 35% 30.08 in 10.0 mi South 20.7 mph 26.5 mph N/A   Clear
2:33 PM 66.2 °F - 35.6 °F 32% 30.07 in 10.0 mi South 21.9 mph 27.6 mph N/A   Clear
2:53 PM 66.2 °F - 37.4 °F 35% 30.07 in 10.0 mi South 20.7 mph 25.3 mph N/A   Clear
3:13 PM 66.2 °F - 37.4 °F 35% 30.06 in 10.0 mi South 20.7 mph - N/A   Clear
3:33 PM 66.2 °F - 37.4 °F 35% 30.05 in 10.0 mi South 20.7 mph - N/A   Clear
3:53 PM 68.0 °F - 35.6 °F 30% 30.05 in 10.0 mi South 21.9 mph 28.8 mph N/A   Clear
4:13 PM 68.0 °F - 35.6 °F 30% 30.04 in 10.0 mi South 23.0 mph 28.8 mph N/A   Clear
4:32 PM 68.0 °F - 35.6 °F 30% 30.03 in 10.0 mi South 21.9 mph 29.9 mph N/A   Clear
4:53 PM 68.0 °F - 37.4 °F 33% 30.03 in 10.0 mi SSE 20.7 mph 25.3 mph N/A   Clear
5:13 PM 66.2 °F - 37.4 °F 35% 30.03 in 10.0 mi SSE 20.7 mph 25.3 mph N/A   Clear
5:33 PM 66.2 °F - 37.4 °F 35% 30.03 in 10.0 mi South 17.3 mph 25.3 mph N/A   Clear
5:53 PM 66.2 °F - 37.4 °F 35% 30.03 in 10.0 mi South 12.7 mph 21.9 mph N/A   Clear
6:13 PM 64.4 °F - 37.4 °F 37% 30.03 in 10.0 mi South 19.6 mph 24.2 mph N/A   Clear
6:33 PM 62.6 °F - 37.4 °F 39% 30.03 in 10.0 mi South 16.1 mph 23.0 mph N/A   Clear
7:13 PM 57.2 °F - 37.4 °F 48% 30.04 in 10.0 mi South 11.5 mph 21.9 mph N/A   Clear
7:33 PM 57.2 °F - 37.4 °F 48% 30.04 in 10.0 mi South 12.7 mph - N/A   Clear
7:53 PM 55.4 °F - 37.4 °F 51% 30.04 in 10.0 mi South 9.2 mph - N/A   Clear
8:13 PM 55.4 °F - 37.4 °F 51% 30.04 in 10.0 mi South 13.8 mph - N/A   Clear
8:33 PM 55.4 °F - 37.4 °F 51% 30.04 in 10.0 mi South 15.0 mph - N/A   Clear
8:53 PM 55.4 °F - 37.4 °F 51% 30.03 in 10.0 mi SSE 15.0 mph 19.6 mph N/A   Clear
9:13 PM 55.4 °F - 37.4 °F 51% 30.03 in 10.0 mi SSE 15.0 mph - N/A   Clear
9:33 PM 55.4 °F - 37.4 °F 51% 30.04 in 10.0 mi South 13.8 mph - N/A   Clear
9:53 PM 55.4 °F - 37.4 °F 51% 30.04 in 10.0 mi South 13.8 mph - N/A   Clear
10:13 PM 55.4 °F - 37.4 °F 51% 30.04 in 10.0 mi South 13.8 mph - N/A   Clear
10:33 PM 55.4 °F - 37.4 °F 51% 30.04 in 10.0 mi South 13.8 mph - N/A   Clear
10:53 PM 53.6 °F - 37.4 °F 54% 30.03 in 10.0 mi South 13.8 mph - N/A   Clear
11:13 PM 53.6 °F - 37.4 °F 54% 30.03 in 10.0 mi South 13.8 mph - N/A   Clear
11:33 PM 53.6 °F - 35.6 °F 51% 30.03 in 10.0 mi South 12.7 mph - N/A   Clear
11:53 PM 53.6 °F - 37.4 °F 54% 30.04 in 10.0 mi South 10.4 mph - N/A   Clear